Regional Weather Roundup
Issued by NWS

Home | Current Version | Previous Version | Text Only | Print | Product List | Glossary Off
Versions: 1 2 3 4 5 6 7 8 9 10 11 12 13 14 15 16 17 18 19 20 21 22 23 24 25 26 27 28 29 30 31 32 33 34 35 36 37 38 39 40 41 42 43 44 45 46 47 48 49 50

000
ASUS45 KABQ 210101
RWRNM
NEW MEXICO REGIONAL WEATHER ROUNDUP
NATIONAL WEATHER SERVICE ALBUQUERQUE NM
700 PM MDT FRI APR 20 2018

NOTE: "FAIR" MEANS FEW OR NO CLOUDS BELOW 12,000 FEET AGL WITH NO
       SIGNIFICANT WEATHER OR OBSTRUCTIONS TO VISION.

      THIS PRODUCT IS RELEASED AS TWO VERSIONS.  ONE VERSION NEAR
      THE TOP OF THE HOUR CONTAINING PRELIMINARY DATA FROM ALBUQUERQUE
      AND OTHER STATIONS.  A FINAL VERSION WITH ADDITIONAL DATA IS
      ISSUED ABOUT 10 MINUTES AFTER THE HOUR.

NMZ501-503-504-510>518-210200-
NORTHWEST PLATEAU/NORTHCENTRAL MOUNTAINS

CITY           SKY/WX    TMP DP  RH WIND       PRES   REMARKS
FARMINGTON     FAIR      51  23  33 W13       29.97R
LOS ALAMOS     FAIR      46  13  26 SW13G20   29.99R
SANTA FE       FAIR      51  12  21 W14       29.95R
TAOS           FAIR      46  11  24 NW14      29.98R
ANGEL FIRE     FAIR      40   8  27 W6G18     29.99R

$$
NMZ402-403-502-505>509-210200-
WESTCENTRAL MOUNTAINS/SOUTHWEST MOUNTAINS

CITY           SKY/WX    TMP DP  RH WIND       PRES   REMARKS
GALLUP         CLOUDY    38  34  85 W8        30.05R WCI  32
GRANTS         MOCLDY    46  26  45 W12G25    30.03R
SILVER CITY    FAIR      59  14  16 W22       30.00S

$$
NMZ407-409-411-412-210200-
SOUTHERN DESERTS

CITY           SKY/WX    TMP DP  RH WIND       PRES   REMARKS
DEMING         FAIR      66  11  11 W22G31    29.96R
LAS CRUCES     FAIR      67   7   9 W24G39    29.95R
HOLLOMAN AFB   FAIR      69   2   7 W15       29.91S
ALAMOGORDO     FAIR      68   5   8 W18G28    29.91S
T OR C         FAIR      65  10  11 SW14      29.91R

$$
NMZ519>523-210200-
CENTRAL VALLEYS/CENTRAL HIGHLANDS

CITY           SKY/WX    TMP DP  RH WIND       PRES   REMARKS
ALBUQUERQUE    MOCLDY    58  16  19 W22       29.94R
DOUBLE EAGLE   PTCLDY    54  18  24 W14G32    29.96R
MORIARTY ARPT  MOCLDY    55  12  18 W12       29.96S
CLINES CORNERS FAIR      49   8  19 W25G35    29.98R
BELEN          FAIR      59  13  16 NW21G28   29.93R
SOCORRO        FAIR      64   9  11 W13G21    29.90R

$$
NMZ524>526-539-540-210200-
SOUTHCENTRAL MOUNTAINS

CITY           SKY/WX    TMP DP  RH WIND       PRES   REMARKS
RUIDOSO        FAIR      55  -6   8 NW12G22   29.98R

$$
NMZ527>531-210200-
NORTHEAST HIGHLANDS/NORTHEAST PLAINS

CITY           SKY/WX    TMP DP  RH WIND       PRES   REMARKS
LAS VEGAS      FAIR      49  11  21 SW22G28   29.94R
RATON          FAIR      41  35  79 NE15      29.93R
CLAYTON        CLOUDY    39  39 100 N13       29.98R WCI  31

$$
NMZ532>537-210200-
EASTCENTRAL PLAINS

CITY           SKY/WX    TMP DP  RH WIND       PRES   REMARKS
SANTA ROSA     FAIR      63   1   8 W16G26    29.87R
TUCUMCARI      FAIR      54  47  77 NE15      29.85R
CANNON AFB     NOT AVBL
CLOVIS AIRPORT FAIR      60  53  77 S15       29.86R HAZE

$$
NMZ028-029-538-210200-
SOUTHEAST PLAINS

CITY           SKY/WX    TMP DP  RH WIND       PRES   REMARKS
ROSWELL        FAIR      73  -3   5 W18G32    29.80R
ARTESIA        FAIR      75   1   5 W21G28    29.82R
CARLSBAD       FAIR      76   3   6 W24G35    29.79S
HOBBS          MOCLDY    70  50  49 S15G24    29.85R


$$




USA.gov is the U.S. government's official web portal to all federal, state and local government web resources and services.